Back to catalog

STARLINK-1267

AliveCommunicationsVLEO
NORAD 45384·PAYLOAD·🇺🇸 United States

Launched Mar 18, 2020 from Cape Canaveral Space Force Station

Loading…

Next Passes (next 24 hours)

TLE

FreshSource: CelesTrak SupGP

Epoch: Sep 14, 2026, 12:39 UTC

1 45384C 20019AA  26257.52756944  .00139990  00000+0  60516-3 0  2578
2 45384  53.0376 277.2619 0006055  29.4235 334.1030 15.84109089    15

Track STARLINK-1267 in real time with AllMySat

Download on the App Store